Weather History for Dallas Paulding County Region, GA

Change the Weather History Date:

Sunday, December 8, 2013

  Actual Average (KVPC) Record (KVPC)
Temperature  
Mean Temperature 44 °F 44 °F  
Max Temperature 46 °F 55 °F 73 °F (2007)
Min Temperature 41 °F 33 °F 18 °F (2006)
Degree Days  
Heating Degree Days 22 21  
Month to date heating degree days 161  
Since 1 July heating degree days 770  
Moisture  
Dew Point 45 °F    
Average Humidity 100    
Maximum Humidity 100    
Minimum Humidity 100    
Precipitation  
Precipitation 0.00 in 0.15 in 1.32 in (1957)
Month to date precipitation 1.31  
Year to date precipitation 47.00  
Sea Level Pressure  
Sea Level Pressure 30.19 in    
Wind  
Wind Speed 7 mph (SE)    
Max Wind Speed 16 mph    
Max Gust Speed 24 mph    
Visibility 2 miles    
Events Fog , Rain    
T = Trace of Precipitation, MM = Missing Value Source: NWS Daily Summary

Daily Weather History Graph

Daily Weather History Graph

Search for Another Location

Airport:

Trip Planner

Search our weather history database for the weather conditions in past years. The results will help you decide how hot, cold, wet, or windy it might be!

Date:

Astronomy

Dec. 08, 2013 Rise Set
Actual Time 7:32 AM EST 5:30 PM EST
Civil Twilight 7:05 AM EST 5:58 PM EST
Nautical Twilight 6:34 AM EST 6:29 PM EST
Astronomical Twilight 6:03 AM EST 6:59 PM EST
Moon 12:05 PM EST (12/8) No Moon Set
Length of Visible Light 10h 53m
Length of Day
9h 58m
Waxing Crescent, 40% of the Moon is Illuminated
Dec 8
Waxing Crescent
Dec 9
First Quarter
Dec 17
Full
Dec 25
Last Quarter
Jan 1
New

Hourly Weather History & Observations

Time (EST) Temp. Windchill Dew Point Humidity Pressure Visibility Wind Dir Wind Speed Gust Speed Precip Events Conditions
12:15 AM 41.0 °F - 41.0 °F 100% 30.27 in 0.2 mi Calm Calm - N/A Rain Light Rain
12:35 AM 41.0 °F - 41.0 °F 100% 30.25 in 0.2 mi Calm Calm - N/A Rain Light Rain
12:55 AM 41.0 °F - 41.0 °F 100% 30.25 in 0.2 mi Calm Calm - N/A Fog Fog
1:15 AM 41.0 °F - 41.0 °F 100% 30.24 in 0.2 mi Calm Calm - N/A Rain Rain
1:35 AM 41.0 °F - 41.0 °F 100% 30.24 in 0.5 mi Calm Calm - N/A   Light Drizzle
1:55 AM 41.0 °F - 41.0 °F 100% 30.23 in 0.2 mi Calm Calm - N/A   Light Drizzle
2:15 AM 42.8 °F - 42.8 °F 100% 30.24 in 0.8 mi Calm Calm - N/A   Drizzle
2:35 AM 42.8 °F 41.1 °F 42.8 °F 100% 30.23 in 1.5 mi ENE 3.5 mph - N/A   Heavy Drizzle
2:55 AM 42.8 °F 40.1 °F 42.8 °F 100% 30.23 in 1.2 mi ENE 4.6 mph - N/A   Drizzle
3:15 AM 42.8 °F 41.1 °F 42.8 °F 100% 30.23 in 0.8 mi East 3.5 mph - N/A Rain Light Rain
3:35 AM 42.8 °F 39.3 °F 42.8 °F 100% 30.22 in 0.5 mi ESE 5.8 mph - N/A Rain Light Rain
3:55 AM 44.6 °F 39.7 °F 44.6 °F 100% 30.21 in 0.5 mi ESE 9.2 mph - N/A Fog Fog
4:15 AM 44.6 °F 40.7 °F 44.6 °F 100% 30.21 in 1.0 mi ESE 6.9 mph - N/A   Overcast
4:35 AM 46.4 °F 41.5 °F 46.4 °F 100% 30.20 in 1.5 mi ESE 10.4 mph - N/A   Overcast
4:55 AM 46.4 °F 41.5 °F 46.4 °F 100% 30.20 in 2.0 mi ESE 10.4 mph 17.3 mph N/A Rain Light Rain
5:15 AM 46.4 °F 41.5 °F 46.4 °F 100% 30.21 in 3.0 mi SE 10.4 mph 16.1 mph N/A Rain Light Rain
5:35 AM 46.4 °F 41.1 °F 46.4 °F 100% 30.20 in 2.5 mi SE 11.5 mph 19.6 mph N/A   Unknown
5:55 AM 46.4 °F 41.5 °F 46.4 °F 100% 30.21 in 2.0 mi SE 10.4 mph - N/A   Unknown
6:15 AM 46.4 °F 40.1 °F 46.4 °F 100% 30.21 in 3.0 mi ESE 15.0 mph 20.7 mph N/A Rain Light Rain
6:35 AM 46.4 °F 40.1 °F 46.4 °F 100% 30.22 in 2.5 mi ESE 15.0 mph - N/A   Overcast
6:55 AM 46.4 °F 40.1 °F 46.4 °F 100% 30.22 in 4.0 mi ESE 15.0 mph 20.7 mph N/A   Overcast
7:15 AM 46.4 °F 40.4 °F 46.4 °F 100% 30.22 in 2.5 mi ESE 13.8 mph 20.7 mph N/A   Unknown
7:35 AM 46.4 °F 40.4 °F 46.4 °F 100% 30.22 in 3.0 mi SE 13.8 mph 23.0 mph N/A Rain Light Rain
7:55 AM 46.4 °F 41.5 °F 46.4 °F 100% 30.22 in 7.0 mi SE 10.4 mph 19.6 mph N/A Rain Light Rain
8:15 AM 46.4 °F 41.1 °F 46.4 °F 100% 30.21 in 7.0 mi SE 11.5 mph 18.4 mph N/A Rain Light Rain
8:35 AM 46.4 °F 39.8 °F 46.4 °F 100% 30.22 in 10.0 mi ESE 16.1 mph 24.2 mph N/A   Overcast
8:55 AM 46.4 °F 40.7 °F 46.4 °F 100% 30.22 in 4.0 mi SE 12.7 mph 18.4 mph N/A Rain Light Rain
9:15 AM 46.4 °F 41.1 °F 46.4 °F 100% 30.23 in 3.0 mi ESE 11.5 mph - N/A Rain Light Rain
9:35 AM 46.4 °F 41.1 °F 46.4 °F 100% 30.24 in 1.5 mi SE 11.5 mph 16.1 mph N/A Rain Light Rain
9:55 AM 46.4 °F 40.4 °F 46.4 °F 100% 30.24 in 1.5 mi ESE 13.8 mph 18.4 mph N/A Rain Light Rain
10:15 AM 46.4 °F 41.1 °F 46.4 °F 100% 30.24 in 2.0 mi SE 11.5 mph 19.6 mph N/A Rain Light Rain
10:35 AM 46.4 °F 40.7 °F 46.4 °F 100% 30.24 in 1.8 mi SE 12.7 mph 18.4 mph N/A Rain Rain
10:55 AM 46.4 °F 41.1 °F 46.4 °F 100% 30.25 in 3.0 mi SE 11.5 mph 18.4 mph N/A Rain Light Rain
11:15 AM 46.4 °F 42.4 °F 46.4 °F 100% 30.25 in 3.0 mi SE 8.1 mph 17.3 mph N/A Rain Light Rain
11:35 AM 46.4 °F 42.9 °F 46.4 °F 100% 30.23 in 3.0 mi ESE 6.9 mph - N/A   Drizzle
11:55 AM 46.4 °F 40.7 °F 46.4 °F 100% 30.21 in 1.8 mi SE 12.7 mph 16.1 mph N/A Rain Rain
12:15 PM 46.4 °F 41.1 °F 46.4 °F 100% 30.20 in 1.2 mi SE 11.5 mph 17.3 mph N/A Rain Light Rain
12:35 PM 46.4 °F 41.5 °F 46.4 °F 100% 30.19 in 2.0 mi SE 10.4 mph 17.3 mph N/A Rain Light Rain
12:55 PM 46.4 °F 43.5 °F 46.4 °F 100% 30.18 in 3.0 mi SE 5.8 mph - N/A   Drizzle
1:15 PM 46.4 °F 41.1 °F 46.4 °F 100% 30.17 in 0.8 mi ESE 11.5 mph - N/A Rain Light Rain
1:35 PM 46.4 °F 41.1 °F 46.4 °F 100% 30.16 in 1.5 mi SE 11.5 mph 17.3 mph N/A   Light Drizzle
1:55 PM 46.4 °F 40.4 °F 46.4 °F 100% 30.15 in 1.5 mi ESE 13.8 mph 19.6 mph N/A   Overcast
2:15 PM 46.4 °F 41.5 °F 46.4 °F 100% 30.15 in 1.8 mi SE 10.4 mph 17.3 mph N/A Rain Light Rain
2:35 PM 46.4 °F 41.5 °F 46.4 °F 100% 30.15 in 3.0 mi SE 10.4 mph 18.4 mph N/A   Drizzle
2:55 PM 46.4 °F 42.4 °F 46.4 °F 100% 30.15 in 4.0 mi SE 8.1 mph - N/A Rain Rain
3:15 PM 46.4 °F 41.9 °F 46.4 °F 100% 30.14 in 5.0 mi ESE 9.2 mph - N/A   Overcast
3:35 PM 46.4 °F 41.5 °F 46.4 °F 100% 30.14 in 1.5 mi SE 10.4 mph - N/A Rain Rain
3:55 PM 46.4 °F 40.7 °F 46.4 °F 100% 30.14 in 1.2 mi ESE 12.7 mph 18.4 mph N/A Rain Light Rain
4:15 PM 46.4 °F 41.5 °F 46.4 °F 100% 30.15 in 0.8 mi SE 10.4 mph 16.1 mph N/A   Light Drizzle
4:35 PM 46.4 °F 41.9 °F 46.4 °F 100% 30.15 in 0.8 mi SE 9.2 mph - N/A Rain Light Rain
4:55 PM 46.4 °F 41.5 °F 46.4 °F 100% 30.15 in 0.5 mi SE 10.4 mph - N/A Rain Rain
5:15 PM 46.4 °F 41.5 °F 46.4 °F 100% 30.15 in 0.5 mi SE 10.4 mph 16.1 mph N/A   Unknown
5:35 PM 46.4 °F 41.5 °F 46.4 °F 100% 30.15 in 0.8 mi SE 10.4 mph - N/A   Unknown
5:55 PM 46.4 °F 41.5 °F 46.4 °F 100% 30.16 in 1.0 mi ESE 10.4 mph - N/A Rain Light Rain
6:15 PM 46.4 °F 42.9 °F 46.4 °F 100% 30.19 in 1.8 mi SE 6.9 mph - N/A   Overcast
6:35 PM 46.4 °F 41.9 °F 46.4 °F 100% 30.18 in 1.5 mi ESE 9.2 mph - N/A   Overcast
6:55 PM 46.4 °F 41.5 °F 46.4 °F 100% 30.19 in 1.0 mi ESE 10.4 mph 17.3 mph N/A   Overcast
7:15 PM 44.6 °F 38.8 °F 44.6 °F 100% 30.19 in 1.5 mi ESE 11.5 mph - N/A   Overcast
7:35 PM 44.6 °F 39.2 °F 44.6 °F 100% 30.19 in 2.0 mi ESE 10.4 mph - N/A Rain Light Rain
7:55 PM 44.6 °F 39.7 °F 44.6 °F 100% 30.19 in 3.0 mi SE 9.2 mph 16.1 mph N/A Rain Rain
8:15 PM 44.6 °F 38.8 °F 44.6 °F 100% 30.17 in 1.8 mi SE 11.5 mph 17.3 mph N/A Rain Rain
8:35 PM 44.6 °F 38.4 °F 44.6 °F 100% 30.17 in 3.0 mi ESE 12.7 mph 20.7 mph N/A Rain Rain
8:55 PM 44.6 °F 38.8 °F 44.6 °F 100% 30.16 in 1.2 mi ESE 11.5 mph 21.9 mph N/A Rain Light Rain
9:15 PM 44.6 °F 38.8 °F 44.6 °F 100% 30.16 in 0.2 mi ESE 11.5 mph 17.3 mph N/A Fog Fog
9:35 PM 44.6 °F 39.2 °F 44.6 °F 100% 30.15 in 0.2 mi ESE 10.4 mph - N/A Rain Light Rain
9:55 PM 44.6 °F 38.8 °F 44.6 °F 100% 30.16 in 0.2 mi SE 11.5 mph - N/A   Unknown
10:15 PM 44.6 °F 38.1 °F 44.6 °F 100% 30.15 in 0.2 mi SE 13.8 mph 19.6 mph N/A   Unknown
10:35 PM 44.6 °F 38.4 °F 44.6 °F 100% 30.16 in 0.5 mi SE 12.7 mph 18.4 mph N/A   Unknown
10:55 PM 42.8 °F 35.8 °F 42.8 °F 100% 30.15 in 0.5 mi SE 13.8 mph - N/A Rain Rain
11:15 PM 42.8 °F 36.6 °F 42.8 °F 100% 30.15 in 1.8 mi SE 11.5 mph 19.6 mph N/A Rain Heavy Rain
11:35 PM 42.8 °F 36.6 °F 42.8 °F 100% 30.15 in 1.5 mi SE 11.5 mph 17.3 mph N/A Rain Light Rain
11:55 PM 42.8 °F 36.2 °F 42.8 °F 100% 30.14 in 2.5 mi SE 12.7 mph 18.4 mph N/A Rain Light Rain